Home   Weather   Asuncion   Past weeks

Flag for Paraguay Past Weather in Asuncion, Paraguay — Yesterday and Last 2 Weeks

Now
77 °F

Passing clouds.


Feels Like: 78 °F
Forecast: 70 / 87 °F
Wind: 7 mph from Northeast

Location: Asuncion / Aeropuerto

Current Time: May 26, 2017 at 3:20:44 am

Latest Report: May 26, 2017 at 2:00 am


Visibility: N/A

Pressure: 29.83 "Hg

Humidity: 89%

Dew Point: 73 °F

Location of AsuncionLocation

Past Weather in Asuncion — Graph

°F

Asuncion Temperature Yesterday

Maximum temperature yesterday: 86 °F (at 12:00 pm)
Minimum temperature yesterday: 77 °F (at 12:00 am)
Average temperature yesterday: 80 °F

High & Low Weather Summary for the Past Weeks

 TemperatureHumidityPressure
High86 °F (May 12, 1:00 pm)100% (May 13, 2:33 pm)30.04 "Hg (May 13, 2:33 pm)
Low52 °F (May 22, 1:00 am)47% (May 21, 12:00 pm)29.56 "Hg (May 18, 4:00 pm)
Average70 °F83%29.87 "Hg
* Reported May 11 2:00 am — May 26 1:00 am, Asuncion. Weather by CustomWeather, © 2017

Note: Actual official high and low records may vary slightly from our data, if they occured in-between our weather recording intervals... More about our weather records

Advertising

Asuncion Weather History for the Previous 24 Hours

Scroll right to see more
 ConditionsComfort  
Time TempWeatherWind HumidityBarometerVisibility
1:00 am
Fri, May 26
79 °FPassing clouds.7 mph84%29.86 "HgN/A
12:00 am79 °FPassing clouds.7 mph89%29.86 "HgN/A
11:00 pm
Thu, May 25
81 °FPassing clouds.7 mph84%29.83 "HgN/A
10:00 pm79 °FPassing clouds.5 mph89%29.83 "HgN/A
9:00 pm79 °FPassing clouds.3 mph89%29.83 "HgN/A
7:00 pm79 °FPassing clouds.No wind89%29.83 "HgN/A
6:00 pm81 °FPartly cloudy.No wind84%29.80 "HgN/A
5:00 pm82 °FPartly sunny.10 mph79%29.77 "HgN/A
4:00 pm82 °FPartly sunny.7 mph79%29.77 "HgN/A
3:00 pm84 °FPartly sunny.8 mph74%29.77 "HgN/A
2:00 pm84 °FPartly sunny.10 mph74%29.77 "HgN/A
1:00 pm86 °FPartly sunny.13 mph70%29.80 "HgN/A
12:00 pm86 °FBroken clouds.16 mph70%29.83 "HgN/A
11:00 am84 °FSunny.14 mph70%29.86 "Hg10 mi
10:00 am82 °FSunny.10 mph74%29.89 "Hg10 mi
9:30 am81 °FPartly sunny.13 mph79%29.89 "HgN/A
9:00 am79 °FPartly sunny.13 mph84%29.89 "HgN/A
8:30 am79 °FPartly sunny.12 mph79%29.89 "HgN/A
8:00 am79 °FPartly sunny.14 mph79%29.89 "HgN/A
7:30 am77 °FPartly sunny.10 mph83%29.86 "HgN/A
7:00 am77 °FBroken clouds.9 mph83%29.86 "HgN/A
6:00 am77 °FPartly cloudy.9 mph83%29.83 "HgN/A
5:00 am77 °FClear.10 mph83%29.80 "Hg10 mi
4:00 am77 °FClear.10 mph83%29.80 "Hg10 mi
3:00 am77 °FClear.9 mph83%29.83 "Hg10 mi
Weather by CustomWeather, © 2017

See weather overviewHow to use our weather pages